TimeEDT,TemperatureF,Dew PointF,Humidity,Sea Level PressureIn,VisibilityMPH,Wind Direction,Wind SpeedMPH,Gust SpeedMPH,PrecipitationIn,Events,Conditions,WindDirDegrees,DateUTC
12:15 AM,53.8,53.8,100,29.85,7.0,Calm,Calm,-,N/A,,Overcast,0,2013-10-23 04:15:00
12:35 AM,52.5,52.5,100,29.85,5.0,Calm,Calm,-,N/A,,Scattered Clouds,0,2013-10-23 04:35:00
12:55 AM,52.5,52.5,100,29.83,5.0,Calm,Calm,-,N/A,,Scattered Clouds,0,2013-10-23 04:55:00
1:15 AM,49.3,49.3,100,29.83,4.0,Calm,Calm,-,N/A,,Clear,0,2013-10-23 05:15:00
1:35 AM,48.6,48.6,100,29.83,5.0,Calm,Calm,-,N/A,,Clear,0,2013-10-23 05:35:00
1:55 AM,46.9,46.9,100,29.82,0.2,Calm,Calm,-,N/A,Fog,Fog,0,2013-10-23 05:55:00
2:15 AM,46.4,46.4,100,29.82,0.8,Calm,Calm,-,N/A,,Mostly Cloudy,0,2013-10-23 06:15:00
2:35 AM,45.5,45.5,100,29.81,5.0,Calm,Calm,-,N/A,,Clear,0,2013-10-23 06:35:00
2:55 AM,45.1,45.1,100,29.81,0.5,Calm,Calm,-,N/A,Fog,Fog,0,2013-10-23 06:55:00
3:15 AM,44.4,44.4,100,29.80,7.0,Calm,Calm,-,N/A,,Clear,0,2013-10-23 07:15:00
3:35 AM,46.2,46.2,100,29.80,10.0,WNW,3.5,-,N/A,,Clear,300,2013-10-23 07:35:00
3:55 AM,49.6,49.5,99,29.79,10.0,WNW,3.5,-,N/A,,Clear,300,2013-10-23 07:55:00
4:15 AM,49.8,45.7,86,29.79,10.0,Calm,Calm,-,N/A,,Clear,0,2013-10-23 08:15:00
4:35 AM,43.3,43.0,99,29.79,10.0,Calm,Calm,-,N/A,,Clear,0,2013-10-23 08:35:00
4:55 AM,42.8,42.6,99,29.79,10.0,Calm,Calm,-,N/A,,Clear,0,2013-10-23 08:55:00
5:15 AM,44.1,44.1,100,29.79,10.0,West,4.6,-,N/A,,Clear,270,2013-10-23 09:15:00
5:35 AM,51.8,41.0,67,29.79,10.0,West,4.6,-,N/A,,Clear,260,2013-10-23 09:35:00
5:55 AM,48.2,41.4,77,29.80,10.0,WNW,3.5,-,N/A,,Clear,290,2013-10-23 09:55:00
6:15 AM,51.1,37.9,61,29.81,10.0,West,3.5,-,N/A,,Clear,270,2013-10-23 10:15:00
6:35 AM,51.6,36.7,57,29.81,10.0,West,5.8,-,N/A,,Clear,260,2013-10-23 10:35:00
6:55 AM,47.1,39.0,73,29.81,10.0,Calm,Calm,-,N/A,,Clear,0,2013-10-23 10:55:00
7:15 AM,41.7,40.3,95,29.81,10.0,Calm,Calm,-,N/A,,Clear,0,2013-10-23 11:15:00
7:35 AM,40.3,39.6,97,29.81,10.0,Calm,Calm,-,N/A,,Clear,0,2013-10-23 11:35:00
7:55 AM,39.6,38.8,97,29.81,10.0,Calm,Calm,-,N/A,,Clear,0,2013-10-23 11:55:00
8:15 AM,39.7,39.4,99,29.80,10.0,SW,3.5,-,N/A,,Clear,230,2013-10-23 12:15:00
8:35 AM,45.5,42.8,90,29.81,10.0,Calm,Calm,-,N/A,,Clear,0,2013-10-23 12:35:00
8:55 AM,50.0,42.8,76,29.83,10.0,WNW,3.5,-,N/A,,Mostly Cloudy,290,2013-10-23 12:55:00
9:15 AM,53.2,42.3,66,29.82,10.0,WNW,4.6,-,N/A,,Scattered Clouds,290,2013-10-23 13:15:00
9:35 AM,54.9,43.5,66,29.82,10.0,West,4.6,-,N/A,,Clear,270,2013-10-23 13:35:00
9:55 AM,57.0,43.0,59,29.82,10.0,West,6.9,-,N/A,,Clear,280,2013-10-23 13:55:00
10:15 AM,58.1,39.0,49,29.83,10.0,WNW,11.5,24.2,N/A,,Clear,290,2013-10-23 14:15:00
10:35 AM,59.0,41.2,52,29.83,10.0,NW,8.1,-,N/A,,Scattered Clouds,310,2013-10-23 14:35:00
10:55 AM,59.5,39.9,48,29.83,10.0,NW,10.4,18.4,N/A,,Mostly Cloudy,310,2013-10-23 14:55:00
11:15 AM,58.3,34.9,41,29.83,10.0,West,16.1,20.7,N/A,,Scattered Clouds,270,2013-10-23 15:15:00
11:35 AM,60.1,34.0,38,29.83,10.0,WNW,10.4,20.7,N/A,,Scattered Clouds,290,2013-10-23 15:35:00
11:55 AM,60.1,31.5,34,29.84,10.0,West,15.0,26.5,N/A,,Scattered Clouds,260,2013-10-23 15:55:00
12:15 PM,61.3,30.7,32,29.84,10.0,West,13.8,21.9,N/A,,Scattered Clouds,280,2013-10-23 16:15:00
12:35 PM,59.4,30.4,33,29.85,10.0,West,9.2,20.7,N/A,,Scattered Clouds,280,2013-10-23 16:35:00
12:55 PM,60.4,31.6,34,29.85,10.0,WNW,12.7,18.4,N/A,,Clear,300,2013-10-23 16:55:00
1:15 PM,59.9,30.2,33,29.85,10.0,West,13.8,23.0,N/A,,Clear,280,2013-10-23 17:15:00
1:35 PM,60.4,31.3,33,29.86,10.0,WNW,16.1,20.7,N/A,,Scattered Clouds,290,2013-10-23 17:35:00
1:55 PM,59.0,30.9,35,29.85,10.0,West,10.4,18.4,N/A,,Scattered Clouds,280,2013-10-23 17:55:00
2:15 PM,58.6,30.7,35,29.87,10.0,WNW,11.5,23.0,N/A,,Clear,300,2013-10-23 18:15:00
2:35 PM,57.7,30.2,35,29.88,10.0,WNW,15.0,25.3,N/A,,Clear,300,2013-10-23 18:35:00
2:55 PM,57.7,30.7,36,29.89,10.0,WNW,17.3,26.5,N/A,,Clear,300,2013-10-23 18:55:00
3:15 PM,57.2,30.6,36,29.90,10.0,WNW,12.7,24.2,N/A,,Scattered Clouds,290,2013-10-23 19:15:00
3:35 PM,55.4,29.5,37,29.91,10.0,WNW,17.3,24.2,N/A,,Scattered Clouds,290,2013-10-23 19:35:00
3:55 PM,54.9,29.5,38,29.92,10.0,WNW,17.3,24.2,N/A,,Scattered Clouds,290,2013-10-23 19:55:00
4:15 PM,55.4,29.3,37,29.93,10.0,West,13.8,24.2,N/A,,Clear,280,2013-10-23 20:15:00
4:35 PM,54.5,28.9,38,29.93,10.0,West,11.5,23.0,N/A,,Clear,270,2013-10-23 20:35:00
4:55 PM,54.3,30.0,39,29.94,10.0,West,13.8,19.6,N/A,,Scattered Clouds,270,2013-10-23 20:55:00
5:15 PM,53.6,31.3,43,29.95,10.0,West,8.1,-,N/A,,Overcast,270,2013-10-23 21:15:00
5:35 PM,53.1,31.5,44,29.96,10.0,WNW,4.6,-,N/A,,Overcast,300,2013-10-23 21:35:00
5:55 PM,51.8,31.6,46,29.97,10.0,WNW,8.1,-,N/A,,Overcast,300,2013-10-23 21:55:00
6:15 PM,50.0,30.7,48,29.98,10.0,WNW,6.9,16.1,N/A,,Overcast,300,2013-10-23 22:15:00
6:35 PM,48.9,28.9,46,30.00,10.0,NNW,6.9,-,N/A,,Overcast,330,2013-10-23 22:35:00
6:55 PM,47.7,28.4,47,30.01,10.0,NW,13.8,18.4,N/A,,Scattered Clouds,310,2013-10-23 22:55:00
7:15 PM,47.5,28.0,47,30.02,10.0,NW,4.6,18.4,N/A,,Mostly Cloudy,310,2013-10-23 23:15:00
7:35 PM,47.3,28.9,49,30.02,10.0,Calm,Calm,-,N/A,,Overcast,0,2013-10-23 23:35:00
7:55 PM,46.9,29.3,50,30.03,10.0,WNW,9.2,16.1,N/A,,Overcast,300,2013-10-23 23:55:00
8:15 PM,46.4,29.5,52,30.04,10.0,NW,5.8,-,N/A,,Overcast,310,2013-10-24 00:15:00
8:35 PM,45.7,29.5,53,30.04,10.0,NW,5.8,16.1,N/A,,Scattered Clouds,310,2013-10-24 00:35:00
8:55 PM,46.0,28.9,51,30.04,10.0,WNW,6.9,-,N/A,,Scattered Clouds,300,2013-10-24 00:55:00
9:15 PM,44.8,29.7,55,30.05,10.0,WNW,5.8,-,N/A,,Scattered Clouds,300,2013-10-24 01:15:00
9:35 PM,45.0,29.5,55,30.05,10.0,WNW,6.9,-,N/A,,Clear,300,2013-10-24 01:35:00
9:55 PM,45.0,30.4,57,30.06,10.0,NW,6.9,16.1,N/A,,Clear,310,2013-10-24 01:55:00
10:15 PM,45.1,30.2,56,30.07,10.0,NW,6.9,-,N/A,,Clear,310,2013-10-24 02:15:00
10:35 PM,44.8,30.7,58,30.08,10.0,Calm,Calm,-,N/A,,Clear,0,2013-10-24 02:35:00
10:55 PM,44.1,30.7,59,30.08,10.0,NNE,3.5,-,N/A,,Scattered Clouds,20,2013-10-24 02:55:00
11:15 PM,42.6,30.9,63,30.09,10.0,NNW,5.8,-,N/A,,Scattered Clouds,340,2013-10-24 03:15:00
11:35 PM,42.8,29.7,60,30.09,10.0,NNW,5.8,-,N/A,,Clear,330,2013-10-24 03:35:00
11:55 PM,42.3,28.9,59,30.09,10.0,NNW,5.8,-,N/A,,Clear,340,2013-10-24 03:55:00